, AK

(GMT )
Northway

Weather History for PAOR - August, 2013

Change the Weather History Date:

Thursday, August 22, 2013

  Actual Average Record
Temperature  
Mean Temperature 54 °F -  
Max Temperature 64 °F 60 °F 80 °F (1977)
Min Temperature 44 °F 41 °F 28 °F (1974)
Degree Days  
Heating Degree Days 11    
Growing Degree Days 4 (Base 50)    
Moisture  
Dew Point 43 °F    
Average Humidity 71    
Maximum Humidity 97    
Minimum Humidity 46    
Precipitation  
Precipitation 0.00 in - - ()
Sea Level Pressure  
Sea Level Pressure 29.70 in    
Wind  
Wind Speed 2 mph (SW)    
Max Wind Speed 10 mph    
Max Gust Speed 23 mph    
Visibility 10 miles    
Events      
Averages and records for this station are not official NWS values.
T = Trace of Precipitation, MM = Missing Value Source: NWS Daily Summary

Daily Weather History Graph

Daily Weather History Graph

Search for Another Location

Airport or City:

Trip Planner

Search our weather history database for the weather conditions in past years. The results will help you decide how hot, cold, wet, or windy it might be!

Date:

Astronomy

Aug. 22, 2013 Rise Set
Actual Time 5:47 AM AKDT 9:11 PM AKDT
Civil Twilight 4:52 AM AKDT 10:06 PM AKDT
Nautical Twilight 3:28 AM AKDT 11:27 PM AKDT
Astronomical Twilight 2:03 AM AKDT 12:57 AM AKDT
Moon 8:52 PM AKDT (8/22) 8:44 AM AKDT (8/22)
Length of Visible Light 17h 13m
Length of Day
15h 24m
Waning Gibbous, 96% of the Moon is Illuminated
Aug 22
Waning Gibbous
Aug 28
Last Quarter
Sep 5
New
Sep 12
First Quarter
Sep 19
Full

Hourly Weather History & Observations

Time (AKDT) Temp. Windchill Dew Point Humidity Pressure Visibility Wind Dir Wind Speed Gust Speed Precip Events Conditions
12:53 AM 45.0 °F - 43.0 °F 93% 29.76 in 10.0 mi Calm Calm - N/A   Mostly Cloudy
1:53 AM 44.1 °F - 42.1 °F 93% 29.75 in 10.0 mi Calm Calm - N/A   Mostly Cloudy
2:53 AM 44.1 °F - 43.0 °F 96% 29.75 in 10.0 mi Calm Calm - N/A   Mostly Cloudy
3:53 AM 45.0 °F 43.5 °F 44.1 °F 97% 29.74 in 10.0 mi East 3.5 mph - N/A   Mostly Cloudy
4:53 AM 45.0 °F - 43.0 °F 93% 29.74 in 10.0 mi Calm Calm - N/A   Mostly Cloudy
5:53 AM 44.1 °F - 42.1 °F 93% 29.74 in 10.0 mi Calm Calm - N/A   Mostly Cloudy
6:53 AM 45.0 °F 43.5 °F 43.0 °F 93% 29.74 in 10.0 mi ESE 3.5 mph - N/A   Overcast
7:53 AM 46.9 °F - 44.1 °F 90% 29.75 in 10.0 mi ESE 3.5 mph - N/A   Scattered Clouds
8:53 AM 50.0 °F - 45.0 °F 83% 29.74 in 10.0 mi ESE 4.6 mph - N/A   Mostly Cloudy
9:53 AM 52.0 °F - 45.0 °F 77% 29.73 in 10.0 mi SE 3.5 mph - N/A   Scattered Clouds
10:53 AM 55.9 °F - 43.0 °F 62% 29.72 in 10.0 mi Calm Calm - N/A   Scattered Clouds
11:53 AM 60.1 °F - 42.1 °F 51% 29.70 in 10.0 mi WNW 4.6 mph 17.3 mph N/A   Scattered Clouds
12:53 PM 60.1 °F - 41.0 °F 49% 29.70 in 10.0 mi WSW 10.4 mph 23.0 mph N/A   Mostly Cloudy
1:53 PM 64.0 °F - 43.0 °F 46% 29.69 in - North - - N/A   Scattered Clouds
2:53 PM 60.1 °F - 42.1 °F 51% 29.69 in 10.0 mi Variable 4.6 mph - N/A   Mostly Cloudy
3:53 PM 60.1 °F - 43.0 °F 53% 29.68 in 10.0 mi West 6.9 mph - N/A   Mostly Cloudy
4:53 PM 61.0 °F - 41.0 °F 48% 29.66 in 10.0 mi West 5.8 mph - N/A   Scattered Clouds
5:53 PM 59.0 °F - 41.0 °F 51% 29.66 in 10.0 mi West 4.6 mph - N/A   Scattered Clouds
6:53 PM 59.0 °F - 42.1 °F 53% 29.66 in 10.0 mi Variable 4.6 mph - N/A   Mostly Cloudy
7:53 PM 55.9 °F - 42.1 °F 60% 29.65 in 10.0 mi West 4.6 mph - N/A   Scattered Clouds
8:53 PM 54.0 °F - 43.0 °F 66% 29.65 in 10.0 mi WSW 3.5 mph - N/A   Overcast
9:53 PM 55.0 °F - 42.1 °F 62% 29.64 in 10.0 mi WSW 5.8 mph - N/A   Mostly Cloudy
10:53 PM 53.1 °F - 43.0 °F 69% 29.63 in 10.0 mi WSW 3.5 mph - N/A   Mostly Cloudy
11:53 PM 51.1 °F - 43.0 °F 74% 29.62 in 10.0 mi WSW 5.8 mph - N/A   Mostly Cloudy